Starlink 31756

operational
NORAD ID: 61517 Int'l Des: 2024-183 Owner: SPXS Country: US Constellation: starlink
LEOCIRCULAR

Über Starlink 31756

Beschreibung wird geladen...

Live-Position

3D-Globus wird geladen...

Nächste Überflüge

Höhenverlauf

Altitude vs Time

uPlot chart will show altitude changes over time

Zweizeiliger Elementsatz

1 61517U 24183J 25259.21313031 .00003661 00000-0 13568-3 0 9997
2 61517 53.1616 233.2231 0001388 93.4289 266.6870 15.30200479 52930
Epoch: 16. Sept. 2025 • Age: 8 hours

Aktueller Status

Höhe 489.2 km
Geschwindigkeit 7.62 km/s
Subsatellitenpunkt -40.15°S, 6.29°E
Startdatum 15. Okt. 2024
Alter 0.9 years
Typ internet

Technische Details

Klassifizierung Payload
Masse 730.00 kg
Trockenmasse 700.00 kg
Gesamtmasse 730.00 kg
Länge 0.30 m
Durchmesser 4.10 m
Spannweite 29.00 m
Form Box + pan
Hersteller SPXS
Bus-Typ Starlink V2M
Phasenstatus In Orbit
Besitzer/Staat SPXS/US

Große Konstellationen

Loading constellations...